• Em Portugal
  • Lista de países
  • Para 7 dias
  • Temperatura da água
  • Mapas de satélite
  • Mapa do tempo
  • Widgets de tempo
  • user-avatar
    Iniciar Sessão

    Previsão horária em Poswietne

    Hoje, 21 Abril, Sábado

    Tempo Temperatura Precipitação Vento Pressão Humidade
    00:00 +17°C° 0 mm 3 m/s 749 mmHg 68%
    01:00 +17°C° 0 mm 3 m/s 749 mmHg 65%
    02:00 +17°C° 0 mm 3 m/s 749 mmHg 68%
    03:00 +16°C° 0 mm 2 m/s 749 mmHg 70%
    04:00 +16°C° 0 mm 2 m/s 749 mmHg 73%
    05:00 +16°C° 0 mm 2 m/s 749 mmHg 72%
    06:00 +17°C° 0 mm 2 m/s 749 mmHg 71%
    07:00 +18°C° 0 mm 2 m/s 749 mmHg 67%
    08:00 +20°C° 0 mm 2 m/s 749 mmHg 62%
    09:00 +21°C° 0 mm 2 m/s 749 mmHg 56%
    10:00 +24°C° 0 mm 3 m/s 749 mmHg 51%
    11:00 +25°C° 0 mm 3 m/s 749 mmHg 48%
    12:00 +25°C° 0 mm 4 m/s 749 mmHg 46%
    13:00 +26°C° 0 mm 4 m/s 749 mmHg 43%
    14:00 +25°C° 0 mm 4 m/s 749 mmHg 44%
    15:00 +25°C° 0 mm 4 m/s 749 mmHg 44%
    16:00 +23°C° 0 mm 4 m/s 748 mmHg 45%
    17:00 +21°C° 0 mm 3 m/s 748 mmHg 51%
    18:00 +19°C° 0 mm 3 m/s 749 mmHg 58%
    19:00 +17°C° 0 mm 2 m/s 749 mmHg 65%
    20:00 +16°C° 0 mm 2 m/s 749 mmHg 67%
    21:00 +15°C° 0 mm 2 m/s 749 mmHg 69%
    22:00 +13°C° 0 mm 2 m/s 749 mmHg 72%
    23:00 +12°C° 0 mm 1 m/s 750 mmHg 72%

    Amanhã, 22 Abril, Domingo

    Tempo Temperatura Precipitação Vento Pressão Humidade
    00:00 +12°C° 0 mm 1 m/s 750 mmHg 72%
    01:00 +11°C° 0 mm 1 m/s 750 mmHg 73%
    02:00 +10°C° 0 mm 1 m/s 750 mmHg 72%
    03:00 +10°C° 0 mm 1 m/s 749 mmHg 72%
    04:00 +10°C° 0 mm 1 m/s 749 mmHg 72%
    05:00 +11°C° 0 mm 1 m/s 749 mmHg 68%
    06:00 +12°C° 0 mm 1 m/s 749 mmHg 65%
    07:00 +13°C° 0 mm 1 m/s 749 mmHg 61%
    08:00 +15°C° 0 mm 1 m/s 749 mmHg 55%
    09:00 +19°C° 0 mm 1 m/s 749 mmHg 49%
    10:00 +21°C° 0 mm 1 m/s 749 mmHg 44%
    11:00 +22°C° 0 mm 1 m/s 749 mmHg 41%
    12:00 +23°C° 0 mm 1 m/s 748 mmHg 38%
    13:00 +25°C° 0 mm 1 m/s 748 mmHg 35%
    14:00 +24°C° 0 mm 1 m/s 747 mmHg 35%
    15:00 +24°C° 0 mm 1 m/s 747 mmHg 36%
    16:00 +24°C° 0 mm 1 m/s 747 mmHg 36%
    17:00 +22°C° 0 mm 1 m/s 746 mmHg 43%
    18:00 +20°C° 0 mm 1 m/s 746 mmHg 50%
    19:00 +17°C° 0 mm 2 m/s 746 mmHg 56%
    20:00 +16°C° 0 mm 2 m/s 746 mmHg 58%
    21:00 +16°C° 0 mm 2 m/s 746 mmHg 60%
    22:00 +15°C° 0 mm 2 m/s 746 mmHg 62%
    23:00 +15°C° 0,1 mm 2 m/s 746 mmHg 64%

    Depois de amanhã, 23 Abril, Segunda-feira

    Tempo Temperatura Precipitação Vento Pressão Humidade
    00:00 +15°C° 0,1 mm 2 m/s 745 mmHg 67%
    01:00 +15°C° 0,1 mm 2 m/s 745 mmHg 69%
    02:00 +15°C° 0,1 mm 2 m/s 745 mmHg 73%
    03:00 +15°C° 0,1 mm 2 m/s 745 mmHg 76%
    04:00 +14°C° 0,1 mm 3 m/s 744 mmHg 80%
    05:00 +16°C° 0,2 mm 3 m/s 744 mmHg 80%
    06:00 +16°C° 0,2 mm 3 m/s 744 mmHg 79%
    07:00 +17°C° 0,2 mm 4 m/s 744 mmHg 79%
    08:00 +19°C° 0,1 mm 4 m/s 744 mmHg 73%
    09:00 +20°C° 0,1 mm 4 m/s 744 mmHg 68%
    10:00 +22°C° 0,1 mm 5 m/s 744 mmHg 63%
    11:00 +22°C° 0,5 mm 5 m/s 744 mmHg 63%
    12:00 +22°C° 0,5 mm 5 m/s 744 mmHg 64%
    13:00 +22°C° 0,5 mm 5 m/s 744 mmHg 64%
    14:00 +21°C° 0,8 mm 5 m/s 744 mmHg 69%
    15:00 +20°C° 0,8 mm 5 m/s 744 mmHg 75%
    16:00 +17°C° 0,8 mm 5 m/s 744 mmHg 80%
    17:00 +18°C° 0,4 mm 4 m/s 744 mmHg 82%
    18:00 +17°C° 0,4 mm 4 m/s 744 mmHg 85%
    19:00 +16°C° 0,4 mm 3 m/s 745 mmHg 88%
    20:00 +14°C° 0 mm 3 m/s 745 mmHg 89%
    21:00 +13°C° 0 mm 3 m/s 746 mmHg 89%
    22:00 +12°C° 0 mm 3 m/s 746 mmHg 90%
    23:00 +12°C° 0 mm 2 m/s 746 mmHg 91%

    24 Abril, Terça-feira

    Tempo Temperatura Precipitação Vento Pressão Humidade
    00:00 +10°C° 0 mm 2 m/s 747 mmHg 92%
    01:00 +10°C° 0 mm 2 m/s 747 mmHg 93%
    02:00 +9°C° 0 mm 2 m/s 747 mmHg 94%
    03:00 +9°C° 0 mm 2 m/s 747 mmHg 94%
    04:00 +8°C° 0 mm 2 m/s 748 mmHg 94%
    05:00 +9°C° 0 mm 3 m/s 748 mmHg 91%
    06:00 +10°C° 0 mm 3 m/s 748 mmHg 87%
    07:00 +11°C° 0 mm 3 m/s 748 mmHg 83%
    08:00 +13°C° 0 mm 4 m/s 748 mmHg 74%
    09:00 +14°C° 0 mm 4 m/s 748 mmHg 65%
    10:00 +16°C° 0 mm 5 m/s 748 mmHg 56%
    11:00 +17°C° 0 mm 5 m/s 747 mmHg 52%
    12:00 +19°C° 0 mm 5 m/s 747 mmHg 48%
    13:00 +20°C° 0 mm 5 m/s 747 mmHg 45%
    14:00 +20°C° 0 mm 5 m/s 746 mmHg 47%
    15:00 +20°C° 0 mm 4 m/s 746 mmHg 48%
    16:00 +20°C° 0 mm 4 m/s 746 mmHg 50%
    17:00 +18°C° 0 mm 4 m/s 746 mmHg 56%
    18:00 +17°C° 0 mm 3 m/s 745 mmHg 63%
    19:00 +16°C° 0 mm 2 m/s 745 mmHg 69%
    20:00 +15°C° 0 mm 2 m/s 745 mmHg 72%
    21:00 +14°C° 0 mm 2 m/s 746 mmHg 76%
    22:00 +13°C° 0 mm 2 m/s 746 mmHg 80%
    23:00 +12°C° 0 mm 2 m/s 746 mmHg 82%

    25 Abril, Quarta-feira

    Tempo Temperatura Precipitação Vento Pressão Humidade
    00:00 +12°C° 0 mm 2 m/s 746 mmHg 84%
    01:00 +10°C° 0 mm 2 m/s 746 mmHg 87%
    02:00 +10°C° 0 mm 2 m/s 746 mmHg 88%
    03:00 +9°C° 0 mm 2 m/s 746 mmHg 90%
    04:00 +10°C° 0 mm 1 m/s 746 mmHg 91%
    05:00 +11°C° 0 mm 1 m/s 746 mmHg 87%
    06:00 +12°C° 0 mm 1 m/s 746 mmHg 82%
    07:00 +14°C° 0 mm 1 m/s 746 mmHg 77%
    08:00 +15°C° 0 mm 1 m/s 746 mmHg 70%
    09:00 +17°C° 0 mm 2 m/s 746 mmHg 63%
    10:00 +19°C° 0 mm 2 m/s 746 mmHg 57%
    11:00 +20°C° 0 mm 3 m/s 745 mmHg 53%
    12:00 +21°C° 0 mm 3 m/s 744 mmHg 50%
    13:00 +22°C° 0 mm 4 m/s 744 mmHg 46%
    14:00 +23°C° 0 mm 4 m/s 743 mmHg 45%
    15:00 +23°C° 0 mm 4 m/s 742 mmHg 44%
    16:00 +25°C° 0 mm 4 m/s 741 mmHg 43%
    17:00 +22°C° 0 mm 4 m/s 741 mmHg 50%
    18:00 +20°C° 0 mm 3 m/s 740 mmHg 57%
    19:00 +19°C° 0 mm 3 m/s 740 mmHg 64%
    20:00 +18°C° 0,1 mm 3 m/s 740 mmHg 69%
    21:00 +18°C° 0,1 mm 3 m/s 740 mmHg 74%
    22:00 +17°C° 0,1 mm 4 m/s 740 mmHg 79%
    23:00 +15°C° 0 mm 4 m/s 740 mmHg 81%

    26 Abril, Quinta-feira

    Tempo Temperatura Precipitação Vento Pressão Humidade
    00:00 +15°C° 0 mm 4 m/s 740 mmHg 83%
    01:00 +14°C° 0 mm 4 m/s 740 mmHg 85%
    02:00 +14°C° 0 mm 4 m/s 741 mmHg 88%
    03:00 +13°C° 0 mm 3 m/s 741 mmHg 90%
    04:00 +12°C° 0 mm 3 m/s 741 mmHg 92%
    05:00 +12°C° 0 mm 4 m/s 741 mmHg 87%
    06:00 +13°C° 0 mm 4 m/s 742 mmHg 82%
    07:00 +13°C° 0 mm 5 m/s 742 mmHg 77%
    08:00 +14°C° 0 mm 5 m/s 742 mmHg 71%
    09:00 +15°C° 0 mm 5 m/s 742 mmHg 65%
    10:00 +16°C° 0 mm 5 m/s 743 mmHg 58%
    11:00 +16°C° 0 mm 5 m/s 742 mmHg 56%
    12:00 +18°C° 0 mm 4 m/s 742 mmHg 54%
    13:00 +18°C° 0 mm 4 m/s 742 mmHg 52%
    14:00 +17°C° 0,1 mm 4 m/s 742 mmHg 54%
    15:00 +17°C° 0,1 mm 4 m/s 742 mmHg 56%
    16:00 +16°C° 0,1 mm 5 m/s 742 mmHg 58%
    17:00 +14°C° 0 mm 4 m/s 742 mmHg 61%
    18:00 +13°C° 0 mm 4 m/s 742 mmHg 63%
    19:00 +12°C° 0 mm 3 m/s 743 mmHg 65%
    20:00 +11°C° 0 mm 3 m/s 743 mmHg 65%
    21:00 +11°C° 0 mm 3 m/s 743 mmHg 64%
    22:00 +10°C° 0 mm 3 m/s 744 mmHg 64%
    23:00 +10°C° 0 mm 3 m/s 744 mmHg 68%
    Mostrar mais